GW4602 Weather Reports


time (UTC)temp
C
wind
direction
speed
KPH
gust
KPH
rain 1hr
cm
rain 24hr
cm
rain mn
cm
humidity
%
barometer
mb
20260502195033 11 24 9.7 14.5 0.00 0.00 0.00 44 1017.0
20260502194530 11 317 6.4 9.7 0.00 0.00 0.00 49 1016.8
20260502194026 11 258 0.0 9.7 0.00 0.00 0.00 48 1017.0
20260502193523 11 291 6.4 12.9 0.00 0.00 0.00 47 1016.9
20260502193020 12 292 6.4 12.9 0.00 0.00 0.00 45 1016.9
20260502192516 12 355 3.2 6.4 0.00 0.00 0.00 45 1016.9
20260502192014 12 308 3.2 16.1 0.00 0.00 0.00 51 1016.9
20260502191510 12 20 4.8 16.1 0.00 0.00 0.00 47 1017.1
20260502191008 12 309 11.3 20.9 0.00 0.00 0.00 47 1017.1
20260502190505 12 56 8.0 12.9 0.00 0.00 0.00 50 1017.0
20260502190001 12 312 3.2 14.5 0.00 0.00 0.00 44 1017.0
20260502185452 13 155 4.8 12.9 0.00 0.00 0.00 44 1017.1
20260502184948 12 319 3.2 17.7 0.00 0.00 0.00 46 1017.2
20260502184444 12 315 3.2 11.3 0.00 0.00 0.00 45 1017.2
20260502183940 13 349 9.7 14.5 0.00 0.00 0.00 43 1017.3
20260502183437 12 180 4.8 11.3 0.00 0.00 0.00 46 1017.0
20260502182932 12 302 6.4 17.7 0.00 0.00 0.00 43 1016.9
20260502182428 12 3 4.8 16.1 0.00 0.00 0.00 43 1017.0
20260502181924 11 339 3.2 16.1 0.00 0.00 0.00 46 1017.4
20260502181423 11 0 6.4 17.7 0.00 0.00 0.00 44 1017.2
20260502180921 12 325 6.4 22.5 0.00 0.00 0.00 44 1017.3
20260502180418 12 13 6.4 14.5 0.00 0.00 0.00 42 1017.2
20260502170331 12 2 9.7 12.9 0.00 0.00 0.00 46 1017.6
20260502164318 12 244 3.2 6.4 0.00 0.00 0.00 49 1017.7
20260502163814 12 352 3.2 14.5 0.00 0.00 0.00 45 1017.6
20260502163311 12 318 8.0 17.7 0.00 0.00 0.00 42 1017.4
20260502162808 12 311 4.8 6.4 0.00 0.00 0.00 44 1017.6
20260502162305 12 223 0.0 4.8 0.00 0.00 0.00 51 1017.7
20260502161800 12 320 4.8 12.9 0.00 0.00 0.00 48 1017.7
20260502161252 11 31 12.9 16.1 0.00 0.00 0.00 44 1017.9
20260502160750 12 43 9.7 12.9 0.00 0.00 0.00 45 1017.9
20260502160249 11 28 3.2 4.8 0.00 0.00 0.00 47 1018.0
20260502152218 11 14 1.6 4.8 0.00 0.00 0.00 53 1017.9
20260502151716 11 23 6.4 11.3 0.00 0.00 0.00 47 1018.2
20260502151212 11 330 11.3 16.1 0.00 0.00 0.00 45 1018.2
20260502150710 11 317 4.8 11.3 0.00 0.00 0.00 51 1018.2
20260502150206 11 315 1.6 9.7 0.00 0.00 0.00 51 1018.2
20260502140130 10 298 0.0 3.2 0.00 0.00 0.00 57 1018.5
20260502130554 7 313 0.0 0.0 0.00 0.00 0.00 68 1018.5
20260502123537 7 1 0.0 0.0 0.00 0.00 0.00 77 1018.6
20260502123033 7 54 0.0 0.0 0.00 0.00 0.00 77 1018.5
20260502122531 7 269 0.0 0.0 0.00 0.00 0.00 79 1018.5
20260502122028 6 235 0.0 0.0 0.00 0.00 0.00 79 1018.7
20260502121525 6 124 0.0 0.0 0.00 0.00 0.00 83 1018.5
20260502121023 6 104 0.0 0.0 0.00 0.00 0.00 83 1018.6
20260502120519 6 109 0.0 0.0 0.00 0.00 0.00 83 1018.5
20260502115514 5 128 0.0 0.0 0.00 0.00 0.00 83 1018.5
20260502115009 5 120 0.0 0.0 0.00 0.00 0.00 83 1018.5
20260502114506 5 118 0.0 0.0 0.00 0.00 0.00 85 1018.5
20260502114003 5 122 0.0 0.0 0.00 0.00 0.00 85 1018.4
20260502113500 5 95 1.6 3.2 0.00 0.00 0.00 86 1018.3
20260502112959 4 124 0.0 0.0 0.00 0.00 0.00 89 1018.5
20260502112456 3 135 0.0 0.0 0.00 0.00 0.00 91 1018.5
20260502111954 3 135 0.0 0.0 0.00 0.00 0.00 91 1018.4
20260502111451 3 135 0.0 1.6 0.00 0.00 0.00 90 1018.2
20260502110948 3 135 0.0 0.0 0.00 0.00 0.00 91 1018.2
20260502110446 3 75 0.0 0.0 0.00 0.00 0.00 91 1018.3
20260502105943 2 59 0.0 0.0 0.00 0.00 0.00 91 1018.4
20260502105441 2 59 0.0 0.0 0.00 0.00 0.00 90 1018.2
20260502104938 2 59 0.0 0.0 0.00 0.00 0.00 90 1018.2
20260502104435 3 59 0.0 0.0 0.00 0.00 0.00 90 1018.3
20260502103932 3 59 0.0 0.0 0.00 0.00 0.00 89 1018.2
20260502103430 3 59 0.0 0.0 0.00 0.00 0.00 89 1018.3
20260502102927 3 59 0.0 0.0 0.00 0.00 0.00 89 1018.2
20260502102423 3 59 0.0 0.0 0.00 0.00 0.00 88 1018.3
20260502101920 3 59 0.0 0.0 0.00 0.00 0.00 88 1018.4
20260502101419 3 59 0.0 0.0 0.00 0.00 0.00 88 1018.5
20260502100916 3 59 0.0 0.0 0.00 0.00 0.00 88 1018.2
20260502100416 3 59 0.0 0.0 0.00 0.00 0.00 87 1018.3
20260502091349 6 36 0.0 0.0 0.00 0.00 0.00 75 1018.3
20260502090847 6 306 0.0 1.6 0.00 0.00 0.00 75 1018.5
20260502090343 6 339 0.0 0.0 0.00 0.00 0.00 74 1018.4
20260502071238 7 333 0.0 0.0 0.00 0.00 0.00 61 1018.0
20260502070737 8 322 0.0 4.8 0.00 0.00 0.00 60 1018.0
20260502070234 8 318 1.6 3.2 0.00 0.00 0.00 62 1017.9
20260502065732 8 316 0.0 1.6 0.00 0.00 0.00 65 1018.0
20260502065230 8 26 0.0 4.8 0.00 0.00 0.00 63 1018.0
20260502064728 8 290 1.6 6.4 0.00 0.00 0.00 64 1017.9
20260502064226 8 11 3.2 4.8 0.00 0.00 0.00 63 1018.1
20260502063723 8 348 3.2 6.4 0.00 0.00 0.00 64 1018.1
20260502063221 8 341 1.6 1.6 0.00 0.00 0.00 66 1018.1
20260502062717 8 323 1.6 1.6 0.00 0.00 0.00 63 1018.1
20260502062216 8 318 3.2 4.8 0.00 0.00 0.00 64 1018.2
20260502061714 8 356 1.6 6.4 0.00 0.00 0.00 64 1018.3
20260502061211 8 344 1.6 3.2 0.00 0.00 0.00 64 1018.4
20260502060706 8 331 1.6 3.2 0.00 0.00 0.00 65 1018.2
20260502060202 8 28 0.0 3.2 0.00 0.00 0.00 63 1018.4
20260502055700 8 82 0.0 0.0 0.00 0.00 0.00 64 1018.2
20260502055158 8 6 0.0 0.0 0.00 0.00 0.00 62 1018.2
20260502054657 8 298 0.0 1.6 0.00 0.00 0.00 64 1018.4
20260502054154 8 358 0.0 1.6 0.00 0.00 0.00 65 1018.5
20260502053651 8 270 0.0 1.6 0.00 0.00 0.00 68 1018.3
20260502053148 8 275 0.0 0.0 0.00 0.00 0.00 68 1018.2
20260502052646 9 311 0.0 0.0 0.00 0.00 0.00 69 1018.3
20260502052144 9 293 0.0 0.0 0.00 0.00 0.00 68 1018.3
20260502051642 9 68 0.0 6.4 0.00 0.00 0.00 67 1018.2
20260502051140 9 49 1.6 4.8 0.00 0.00 0.00 68 1018.3
20260502050636 9 1 1.6 9.7 0.00 0.00 0.00 68 1018.3
20260502050133 9 327 4.8 11.3 0.00 0.00 0.00 69 1018.4
20260502045629 9 329 6.4 6.4 0.00 0.00 0.00 70 1018.4
20260502045127 9 325 4.8 9.7 0.00 0.00 0.00 70 1018.4
20260502044623 9 43 3.2 12.9 0.00 0.00 0.00 70 1018.2
20260502044120 9 324 8.0 11.3 0.00 0.00 0.00 70 1018.5
20260502043618 9 296 8.0 11.3 0.00 0.00 0.00 70 1018.3
20260502043114 9 335 0.0 0.0 0.00 0.00 0.00 72 1018.2
20260502042608 9 299 1.6 1.6 0.00 0.00 0.00 71 1018.2
20260502042106 10 60 0.0 0.0 0.00 0.00 0.00 71 1018.2
20260502041603 10 347 1.6 9.7 0.00 0.00 0.00 69 1018.3
20260502041100 10 314 1.6 4.8 0.00 0.00 0.00 68 1018.1
20260502040557 10 311 0.0 4.8 0.00 0.00 0.00 67 1018.1
20260502040054 10 346 4.8 6.4 0.00 0.00 0.00 68 1018.2
20260502035550 10 300 0.0 3.2 0.00 0.00 0.00 69 1018.3
20260502035048 10 345 1.6 6.4 0.00 0.00 0.00 67 1018.3
20260502034546 10 25 0.0 1.6 0.00 0.00 0.00 69 1018.2
20260502034044 10 10 1.6 3.2 0.00 0.00 0.00 68 1018.3
20260502033542 10 300 0.0 0.0 0.00 0.00 0.00 69 1018.3
20260502033039 10 338 0.0 0.0 0.00 0.00 0.00 70 1018.3
20260502032534 10 320 0.0 0.0 0.00 0.00 0.00 70 1018.3
20260502032031 10 318 0.0 0.0 0.00 0.00 0.00 68 1018.6
20260502031529 10 39 0.0 0.0 0.00 0.00 0.00 68 1018.4
20260502031027 10 307 1.6 3.2 0.00 0.00 0.00 65 1018.5
20260502030526 10 303 0.0 3.2 0.00 0.00 0.00 68 1018.2
20260502030023 10 359 1.6 3.2 0.00 0.00 0.00 67 1018.1
20260502025520 10 326 3.2 3.2 0.00 0.00 0.00 67 1018.1
20260502025018 10 323 1.6 3.2 0.00 0.00 0.00 66 1018.1
20260502024515 10 304 0.0 3.2 0.00 0.00 0.00 67 1018.0
20260502024014 10 317 3.2 6.4 0.00 0.00 0.00 66 1018.0
20260502023511 10 20 6.4 12.9 0.00 0.00 0.00 65 1018.0
20260502023008 10 307 8.0 12.9 0.00 0.00 0.00 65 1017.9
20260502022504 10 325 1.6 4.8 0.00 0.00 0.00 67 1017.5
20260502022002 10 285 4.8 4.8 0.00 0.00 0.00 66 1017.4
20260502021459 10 75 3.2 4.8 0.00 0.00 0.00 69 1017.4
20260502020956 11 278 0.0 4.8 0.00 0.00 0.00 67 1017.5
20260502020454 11 325 4.8 6.4 0.00 0.00 0.00 66 1017.5
20260502015950 11 38 4.8 6.4 0.00 0.00 0.00 66 1016.9
20260502015448 11 355 4.8 11.3 0.00 0.00 0.00 68 1016.9
20260502014944 11 308 6.4 11.3 0.00 0.00 0.00 69 1016.8
20260502014441 11 290 1.6 6.4 0.00 0.00 0.00 69 1016.9
20260502013938 11 318 1.6 1.6 0.00 0.00 0.00 70 1016.7
20260502013433 11 259 0.0 3.2 0.00 0.00 0.00 70 1016.7
20260502012930 11 351 1.6 4.8 0.00 0.00 0.00 69 1016.6
20260502012428 11 336 1.6 3.2 0.00 0.00 0.00 70 1016.7
20260502011925 11 327 3.2 3.2 0.00 0.00 0.00 69 1016.4
20260502011421 11 68 8.0 12.9 0.00 0.00 0.00 69 1016.2
20260502010918 11 324 3.2 4.8 0.00 0.00 0.00 69 1016.3
20260502010415 11 356 6.4 14.5 0.00 0.00 0.00 68 1016.2
20260502005911 11 244 3.2 4.8 0.00 0.00 0.00 68 1016.2
20260502005410 11 343 6.4 9.7 0.00 0.00 0.00 68 1015.9
20260502004907 12 277 3.2 4.8 0.00 0.00 0.00 68 1015.8
20260502004403 12 106 0.0 4.8 0.00 0.00 0.00 67 1015.7
20260502003900 12 270 9.7 11.3 0.00 0.00 0.00 66 1015.7
20260502003357 12 308 1.6 3.2 0.00 0.00 0.00 65 1015.7
20260502002854 12 320 4.8 6.4 0.00 0.00 0.00 63 1015.4
20260502002351 12 289 8.0 14.5 0.00 0.00 0.00 62 1015.2
20260502001848 12 340 3.2 6.4 0.00 0.00 0.00 62 1015.2
20260502001346 13 10 3.2 6.4 0.00 0.00 0.00 61 1014.8
20260502000843 13 317 4.8 9.7 0.00 0.00 0.00 60 1014.7
20260502000341 13 33 3.2 11.3 0.00 0.00 0.00 59 1014.7
20260501235837 13 22 8.0 22.5 0.00 0.00 0.00 57 1014.5
20260501235333 14 337 12.9 22.5 0.00 0.00 0.00 55 1014.0
20260501234828 15 319 6.4 12.9 0.00 0.00 0.00 53 1013.8
20260501234326 15 342 9.7 24.1 0.00 0.00 0.00 50 1013.7
20260501233824 15 322 6.4 14.5 0.00 0.00 0.00 49 1013.3
20260501233321 16 352 12.9 20.9 0.00 0.00 0.00 46 1013.3
20260501232817 17 319 19.3 27.4 0.00 0.00 0.00 40 1013.1
20260501232314 17 313 1.6 6.4 0.00 0.00 0.00 40 1012.9
20260501231812 17 279 1.6 4.8 0.00 0.00 0.00 39 1012.9
20260501231309 17 290 4.8 11.3 0.00 0.00 0.00 37 1012.9
20260501230808 17 289 4.8 9.7 0.00 0.00 0.00 35 1013.0
20260501230306 17 334 4.8 9.7 0.00 0.00 0.00 37 1013.0
20260501225803 17 304 4.8 12.9 0.00 0.00 0.00 34 1012.9
20260501225301 18 326 9.7 12.9 0.00 0.00 0.00 35 1013.0
20260501224756 18 304 3.2 9.7 0.00 0.00 0.00 34 1012.9
20260501224254 18 297 6.4 11.3 0.00 0.00 0.00 34 1013.0
20260501223750 18 314 9.7 14.5 0.00 0.00 0.00 36 1012.8
20260501223247 18 273 3.2 4.8 0.00 0.00 0.00 37 1013.0
20260501222742 18 300 3.2 6.4 0.00 0.00 0.00 33 1012.8
20260501222240 18 302 6.4 9.7 0.00 0.00 0.00 32 1013.0
20260501221737 18 262 3.2 9.7 0.00 0.00 0.00 32 1012.8
20260501221234 18 246 4.8 9.7 0.00 0.00 0.00 35 1012.8
20260501220731 18 234 8.0 20.9 0.00 0.00 0.00 33 1012.9
20260501220229 18 334 8.0 17.7 0.00 0.00 0.00 32 1012.8
20260501215726 18 342 3.2 4.8 0.00 0.00 0.00 35 1013.1
20260501215221 19 276 6.4 12.9 0.00 0.00 0.00 32 1013.0
20260501214716 19 343 8.0 16.1 0.00 0.00 0.00 32 1012.9
20260501214213 18 285 3.2 9.7 0.00 0.00 0.00 33 1012.9
20260501213709 18 286 3.2 14.5 0.00 0.00 0.00 32 1012.9
20260501213205 20 346 8.0 12.9 0.00 0.00 0.00 30 1012.8
20260501212701 19 250 4.8 9.7 0.00 0.00 0.00 33 1012.8
20260501212158 19 310 3.2 6.4 0.00 0.00 0.00 34 1012.9
20260501211655 20 222 6.4 9.7 0.00 0.00 0.00 34 1012.8
20260501211153 20 304 4.8 12.9 0.00 0.00 0.00 29 1012.8
20260501210649 20 281 4.8 14.5 0.00 0.00 0.00 29 1012.8
20260501210146 20 293 4.8 22.5 0.00 0.00 0.00 30 1012.7
20260501205642 20 331 12.9 22.5 0.00 0.00 0.00 29 1012.7
20260501205140 20 327 16.1 20.9 0.00 0.00 0.00 29 1012.8
20260501204636 21 291 8.0 11.3 0.00 0.00 0.00 26 1012.6
20260501204132 20 207 4.8 14.5 0.00 0.00 0.00 31 1012.7
20260501203629 21 285 6.4 9.7 0.00 0.00 0.00 28 1012.6
20260501203127 21 309 9.7 12.9 0.00 0.00 0.00 26 1012.5
20260501202623 21 306 9.7 16.1 0.00 0.00 0.00 30 1012.6
20260501202120 21 294 8.0 14.5 0.00 0.00 0.00 31 1012.6
20260501201617 20 268 6.4 12.9 0.00 0.00 0.00 28 1012.7
20260501201114 20 308 3.2 14.5 0.00 0.00 0.00 28 1012.7
20260501200611 21 9 9.7 25.7 0.00 0.00 0.00 27 1012.8
20260501200108 21 298 9.7 14.5 0.00 0.00 0.00 29 1012.9
20260501195606 20 269 3.2 6.4 0.00 0.00 0.00 30 1012.8